Precipitable_Water
0.54 0.52 0.50 0.50 0.48 0.48 0.48 0.50 0.50 0.54 0.56 0.56 0.56 0.56 0.56 0.56 0.56 0.56 0.58 0.58 0.58 0.60 0.62 0.62 0.64 0.64 0.64 0.66 0.64 0.62 0.62 0.62 0.64 0.62 0.64 0.66 0.68 0.72 0.76 0.78 0.80 0.78 0.76 0.74 0.74 0.74 0.74 0.78 0.82 0.82 0.84 0.86 0.88 0.88 0.90 0.94 1.01 1.11 1.19 1.25 1.27 1.29 1.29 1.31 1.31 1.33 1.31 1.31 1.29
0.54 0.52 0.52 0.50 0.50 0.50 0.52 0.52 0.54 0.56 0.58 0.60 0.60 0.60 0.60 0.58 0.58 0.58 0.60 0.60 0.62 0.62 0.64 0.66 0.66 0.68 0.68 0.68 0.66 0.66 0.64 0.64 0.64 0.64 0.64 0.66 0.68 0.72 0.76 0.80 0.82 0.82 0.80 0.78 0.76 0.74 0.74 0.74 0.80 0.80 0.82 0.86 0.88 0.90 0.90 0.90 0.98 1.05 1.13 1.21 1.23 1.25 1.27 1.29 1.29 1.31 1.31 1.31 1.31
0.54 0.54 0.54 0.52 0.52 0.52 0.54 0.54 0.56 0.58 0.62 0.62 0.62 0.62 0.62 0.60 0.60 0.60 0.62 0.62 0.64 0.66 0.68 0.68 0.70 0.70 0.70 0.68 0.68 0.68 0.68 0.68 0.68 0.68 0.68 0.68 0.70 0.72 0.76 0.80 0.82 0.82 0.82 0.80 0.78 0.78 0.76 0.76 0.80 0.82 0.82 0.84 0.88 0.90 0.88 0.86 0.94 1.01 1.09 1.17 1.21 1.23 1.23 1.25 1.27 1.31 1.31 1.33 1.33
0.56 0.56 0.54 0.54 0.52 0.54 0.54 0.56 0.58 0.60 0.64 0.64 0.66 0.64 0.64 0.64 0.64 0.64 0.64 0.66 0.66 0.68 0.70 0.72 0.72 0.72 0.72 0.70 0.70 0.70 0.70 0.70 0.70 0.70 0.70 0.70 0.72 0.74 0.76 0.78 0.80 0.82 0.84 0.84 0.82 0.82 0.80 0.80 0.82 0.82 0.82 0.84 0.86 0.88 0.90 0.88 0.90 0.98 1.05 1.13 1.19 1.21 1.21 1.21 1.25 1.27 1.29 1.31 1.33
0.58 0.58 0.56 0.54 0.54 0.54 0.56 0.58 0.58 0.62 0.66 0.68 0.68 0.68 0.68 0.68 0.66 0.66 0.68 0.68 0.70 0.72 0.74 0.78 0.78 0.76 0.76 0.76 0.74 0.72 0.70 0.70 0.70 0.70 0.70 0.72 0.74 0.76 0.78 0.80 0.80 0.80 0.82 0.86 0.86 0.84 0.84 0.84 0.84 0.84 0.84 0.86 0.88 0.90 0.90 0.88 0.88 0.94 1.03 1.11 1.17 1.19 1.19 1.17 1.21 1.25 1.27 1.29 1.29
0.60 0.60 0.58 0.58 0.58 0.58 0.60 0.62 0.64 0.66 0.70 0.72 0.72 0.70 0.70 0.70 0.70 0.70 0.70 0.70 0.74 0.76 0.80 0.84 0.84 0.84 0.84 0.82 0.78 0.74 0.72 0.72 0.70 0.70 0.70 0.72 0.76 0.78 0.80 0.82 0.82 0.82 0.82 0.84 0.86 0.86 0.88 0.88 0.88 0.86 0.86 0.86 0.88 0.90 0.90 0.88 0.86 0.90 1.00 1.07 1.13 1.17 1.17 1.13 1.17 1.21 1.25 1.27 1.25
0.64 0.62 0.62 0.64 0.64 0.64 0.66 0.66 0.68 0.70 0.72 0.74 0.72 0.72 0.72 0.72 0.72 0.70 0.72 0.74 0.78 0.82 0.84 0.88 0.86 0.86 0.86 0.84 0.80 0.78 0.74 0.72 0.72 0.70 0.70 0.70 0.70 0.74 0.80 0.82 0.84 0.84 0.82 0.82 0.84 0.86 0.88 0.92 0.88 0.86 0.84 0.86 0.88 0.88 0.88 0.86 0.84 0.84 0.90 1.03 1.09 1.11 1.11 1.09 1.07 1.13 1.19 1.21 1.19
0.70 0.68 0.68 0.68 0.68 0.68 0.68 0.70 0.70 0.72 0.72 0.74 0.72 0.72 0.72 0.74 0.74 0.74 0.74 0.76 0.78 0.80 0.82 0.84 0.86 0.88 0.88 0.86 0.84 0.80 0.76 0.72 0.72 0.70 0.70 0.70 0.70 0.72 0.76 0.78 0.80 0.80 0.80 0.78 0.82 0.84 0.88 0.92 0.90 0.86 0.84 0.82 0.86 0.86 0.86 0.84 0.84 0.84 0.88 1.00 1.05 1.07 1.09 1.07 1.05 1.05 1.09 1.15 1.13
0.78 0.78 0.76 0.72 0.72 0.72 0.72 0.72 0.74 0.74 0.74 0.74 0.74 0.74 0.74 0.74 0.74 0.76 0.76 0.78 0.80 0.82 0.84 0.86 0.90 0.92 0.90 0.90 0.86 0.82 0.78 0.72 0.72 0.70 0.70 0.68 0.68 0.70 0.72 0.72 0.74 0.76 0.76 0.78 0.78 0.82 0.86 0.88 0.88 0.86 0.84 0.84 0.86 0.86 0.86 0.84 0.84 0.84 0.88 0.92 1.01 1.05 1.07 1.05 1.03 1.03 1.03 1.03 1.05
0.82 0.82 0.82 0.84 0.84 0.84 0.84 0.80 0.80 0.78 0.78 0.76 0.76 0.76 0.76 0.76 0.78 0.80 0.80 0.82 0.84 0.84 0.86 0.88 0.92 0.92 0.92 0.92 0.90 0.86 0.80 0.74 0.72 0.72 0.70 0.70 0.70 0.70 0.70 0.70 0.70 0.72 0.74 0.76 0.78 0.80 0.84 0.86 0.86 0.86 0.84 0.84 0.88 0.92 0.94 0.90 0.92 0.92 0.92 0.96 1.00 1.03 1.05 1.03 1.01 1.00 1.00 1.00 1.01
0.86 0.86 0.86 0.86 0.86 0.86 0.86 0.86 0.84 0.82 0.80 0.80 0.80 0.80 0.80 0.80 0.80 0.82 0.84 0.86 0.86 0.86 0.88 0.88 0.90 0.92 0.94 0.94 0.94 0.92 0.88 0.82 0.76 0.74 0.72 0.72 0.70 0.70 0.70 0.68 0.68 0.70 0.72 0.74 0.76 0.80 0.82 0.82 0.82 0.82 0.82 0.84 0.90 0.96 1.01 1.00 1.01 1.00 0.98 1.00 1.01 1.03 1.03 1.03 1.01 1.00 1.00 1.01 1.01
0.92 0.92 0.92 0.92 0.90 0.90 0.88 0.86 0.86 0.84 0.82 0.82 0.82 0.82 0.82 0.82 0.82 0.84 0.86 0.88 0.88 0.90 0.90 0.90 0.90 0.92 0.94 0.96 0.96 0.96 0.92 0.88 0.80 0.76 0.74 0.74 0.72 0.72 0.72 0.70 0.70 0.70 0.72 0.76 0.78 0.80 0.82 0.80 0.80 0.80 0.80 0.82 0.88 0.96 1.01 1.05 1.05 1.03 1.01 1.01 1.01 1.01 1.01 1.01 1.01 1.01 1.01 1.01 1.01
0.96 0.96 0.94 0.94 0.94 0.92 0.92 0.90 0.90 0.88 0.88 0.86 0.86 0.86 0.86 0.86 0.86 0.88 0.92 0.92 0.94 0.92 0.92 0.92 0.92 0.92 0.92 0.94 0.94 0.94 0.94 0.90 0.84 0.78 0.76 0.76 0.74 0.74 0.74 0.72 0.72 0.74 0.78 0.78 0.80 0.80 0.82 0.82 0.80 0.80 0.80 0.82 0.86 0.92 0.94 0.94 1.00 1.00 0.98 0.98 0.98 0.98 0.98 0.98 1.00 1.00 1.00 1.01 1.01
0.96 0.96 0.96 0.96 0.96 0.94 0.94 0.92 0.92 0.92 0.92 0.90 0.90 0.90 0.90 0.90 0.92 0.94 0.96 0.98 0.98 0.98 0.96 0.96 0.94 0.94 0.92 0.92 0.92 0.92 0.90 0.88 0.86 0.82 0.78 0.78 0.78 0.76 0.76 0.76 0.76 0.78 0.80 0.80 0.80 0.82 0.84 0.84 0.82 0.82 0.82 0.82 0.84 0.86 0.88 0.88 0.90 0.92 0.94 0.94 0.94 0.94 0.96 0.96 0.98 0.98 0.98 0.98 1.00
0.90 0.92 0.92 0.92 0.92 0.92 0.92 0.92 0.92 0.92 0.92 0.92 0.92 0.94 0.94 0.94 0.96 1.00 1.01 1.01 1.01 1.01 1.01 1.00 0.98 0.96 0.94 0.92 0.92 0.90 0.90 0.88 0.86 0.84 0.82 0.82 0.80 0.80 0.80 0.80 0.82 0.82 0.80 0.80 0.82 0.84 0.86 0.86 0.84 0.84 0.82 0.84 0.86 0.88 0.90 0.90 0.90 0.92 0.92 0.92 0.94 0.96 0.96 0.98 0.98 0.96 0.96 0.94 0.96
0.90 0.90 0.90 0.90 0.90 0.90 0.90 0.92 0.92 0.92 0.92 0.92 0.94 0.94 0.96 0.98 1.01 1.03 1.03 1.03 1.03 1.03 1.03 1.01 1.00 0.98 0.96 0.94 0.92 0.90 0.90 0.88 0.86 0.84 0.84 0.84 0.84 0.82 0.82 0.84 0.84 0.82 0.80 0.78 0.82 0.86 0.88 0.90 0.86 0.84 0.80 0.82 0.86 0.92 0.98 1.00 0.98 0.96 0.94 0.96 0.96 0.96 0.96 0.98 0.98 0.96 0.94 0.94 0.94
0.90 0.90 0.90 0.90 0.90 0.90 0.90 0.90 0.90 0.92 0.92 0.94 0.94 0.96 0.98 1.00 1.01 1.03 1.05 1.05 1.03 1.03 1.01 1.01 1.00 0.98 0.96 0.94 0.94 0.92 0.88 0.86 0.86 0.86 0.86 0.86 0.84 0.86 0.86 0.86 0.84 0.82 0.80 0.78 0.80 0.82 0.84 0.84 0.82 0.80 0.78 0.78 0.88 0.96 1.03 1.07 1.05 1.03 1.00 0.98 0.98 0.98 0.96 0.96 0.98 0.98 0.98 0.96 0.94
0.90 0.90 0.90 0.90 0.90 0.90 0.90 0.90 0.90 0.90 0.92 0.92 0.96 0.98 1.00 1.01 1.03 1.05 1.05 1.05 1.05 1.03 1.01 1.00 1.00 1.00 0.98 0.94 0.92 0.90 0.88 0.86 0.86 0.86 0.86 0.88 0.86 0.88 0.88 0.88 0.86 0.84 0.80 0.78 0.76 0.76 0.76 0.76 0.76 0.76 0.78 0.78 0.88 1.00 1.09 1.13 1.13 1.09 1.05 1.01 1.00 1.00 1.00 1.00 1.03 1.03 1.01 1.00 0.98
0.90 0.90 0.90 0.90 0.90 0.90 0.90 0.90 0.92 0.92 0.92 0.94 0.96 0.98 1.01 1.01 1.03 1.05 1.05 1.05 1.03 1.01 1.01 1.00 1.00 1.00 0.98 0.94 0.92 0.90 0.90 0.90 0.90 0.90 0.90 0.92 0.92 0.92 0.92 0.90 0.88 0.86 0.82 0.80 0.78 0.74 0.74 0.74 0.76 0.78 0.80 0.84 0.94 1.01 1.09 1.17 1.17 1.13 1.09 1.05 1.03 1.03 1.05 1.07 1.09 1.09 1.07 1.03 1.01
0.88 0.88 0.88 0.88 0.90 0.90 0.90 0.92 0.92 0.94 0.94 0.96 0.98 0.98 1.00 1.00 1.01 1.01 1.01 1.01 1.03 1.01 1.01 1.00 1.00 0.98 0.96 0.92 0.92 0.92 0.94 0.94 0.96 0.96 0.98 1.00 0.98 0.96 0.94 0.94 0.90 0.88 0.88 0.86 0.82 0.80 0.80 0.80 0.84 0.86 0.90 0.92 1.01 1.05 1.11 1.19 1.17 1.15 1.11 1.09 1.09 1.09 1.11 1.15 1.15 1.13 1.09 1.07 1.05
0.88 0.88 0.88 0.88 0.90 0.90 0.90 0.92 0.92 0.94 0.96 0.96 0.96 0.98 0.98 1.00 1.00 1.00 0.98 1.00 1.00 1.01 1.01 1.01 1.00 0.98 0.96 0.94 0.96 0.96 0.98 1.00 1.01 1.01 1.01 1.01 1.00 0.98 0.96 0.96 0.94 0.94 0.92 0.90 0.90 0.88 0.90 0.92 0.96 0.98 1.01 1.07 1.09 1.13 1.15 1.17 1.17 1.15 1.15 1.13 1.15 1.15 1.15 1.17 1.17 1.15 1.13 1.11 1.09
0.88 0.88 0.88 0.90 0.90 0.90 0.90 0.92 0.92 0.94 0.96 0.96 0.96 0.98 0.98 0.98 0.98 0.98 0.98 0.98 0.98 0.98 0.98 1.00 0.98 0.98 0.98 1.00 1.01 1.03 1.05 1.05 1.05 1.05 1.05 1.03 1.00 1.00 1.00 1.00 0.98 0.98 0.98 0.98 0.98 0.98 1.00 1.03 1.05 1.07 1.11 1.15 1.15 1.17 1.17 1.17 1.17 1.15 1.15 1.15 1.15 1.17 1.17 1.19 1.17 1.17 1.17 1.15 1.13
0.88 0.88 0.90 0.90 0.90 0.90 0.92 0.92 0.92 0.94 0.94 0.96 0.96 0.96 0.96 0.96 0.96 0.96 0.96 0.96 0.96 0.96 0.98 0.98 0.98 1.00 1.00 1.01 1.07 1.09 1.11 1.11 1.11 1.11 1.11 1.09 1.05 1.05 1.03 1.03 1.03 1.03 1.03 1.05 1.05 1.07 1.09 1.11 1.13 1.15 1.17 1.19 1.19 1.19 1.19 1.19 1.17 1.17 1.15 1.15 1.15 1.17 1.19 1.19 1.21 1.21 1.21 1.21 1.19
0.86 0.88 0.88 0.90 0.90 0.90 0.92 0.92 0.92 0.94 0.94 0.94 0.94 0.94 0.94 0.94 0.94 0.94 0.94 0.92 0.94 0.96 0.98 0.98 1.00 1.00 1.01 1.03 1.07 1.09 1.11 1.11 1.11 1.11 1.13 1.15 1.15 1.13 1.13 1.11 1.11 1.11 1.11 1.13 1.15 1.15 1.17 1.17 1.17 1.19 1.21 1.21 1.19 1.19 1.19 1.19 1.19 1.17 1.17 1.15 1.15 1.19 1.21 1.23 1.25 1.25 1.27 1.27 1.27
0.84 0.86 0.86 0.88 0.90 0.90 0.92 0.92 0.92 0.92 0.94 0.94 0.94 0.94 0.94 0.94 0.94 0.92 0.92 0.92 0.94 0.96 0.98 1.00 1.00 1.01 1.01 1.03 1.07 1.07 1.09 1.09 1.09 1.09 1.11 1.13 1.17 1.21 1.21 1.21 1.19 1.19 1.19 1.21 1.21 1.23 1.23 1.23 1.23 1.23 1.25 1.23 1.23 1.21 1.21 1.21 1.21 1.19 1.19 1.17 1.17 1.21 1.25 1.27 1.29 1.31 1.31 1.33 1.33
0.78 0.80 0.82 0.84 0.86 0.88 0.90 0.92 0.92 0.94 0.94 0.94 0.96 0.96 0.96 0.96 0.96 0.94 0.92 0.92 0.94 0.96 0.98 1.00 1.00 1.01 1.01 1.03 1.05 1.05 1.05 1.07 1.07 1.07 1.07 1.09 1.13 1.19 1.23 1.25 1.25 1.25 1.27 1.27 1.27 1.27 1.27 1.27 1.27 1.27 1.27 1.27 1.25 1.25 1.23 1.23 1.23 1.23 1.23 1.23 1.25 1.27 1.29 1.29 1.31 1.33 1.37 1.39 1.39
0.70 0.72 0.74 0.76 0.78 0.80 0.82 0.84 0.88 0.92 0.92 0.94 0.94 0.94 0.96 0.96 0.98 0.96 0.94 0.92 0.94 0.94 0.96 0.98 1.00 1.01 1.03 1.03 1.03 1.03 1.03 1.03 1.05 1.05 1.05 1.05 1.07 1.11 1.15 1.23 1.27 1.29 1.31 1.31 1.29 1.29 1.29 1.29 1.29 1.29 1.29 1.29 1.27 1.25 1.25 1.25 1.25 1.27 1.27 1.27 1.31 1.31 1.31 1.31 1.33 1.37 1.39 1.39 1.41
0.60 0.62 0.66 0.68 0.68 0.70 0.72 0.74 0.80 0.84 0.86 0.90 0.92 0.94 0.94 0.96 0.96 0.96 0.96 0.94 0.92 0.94 0.96 0.98 1.00 1.00 1.01 1.01 1.01 1.01 1.01 1.00 1.01 1.01 1.03 1.03 1.05 1.07 1.09 1.11 1.17 1.19 1.23 1.25 1.29 1.31 1.31 1.29 1.29 1.29 1.29 1.29 1.29 1.27 1.27 1.25 1.27 1.27 1.29 1.31 1.33 1.33 1.33 1.33 1.35 1.37 1.37 1.37 1.39
0.48 0.52 0.54 0.56 0.58 0.62 0.64 0.66 0.70 0.72 0.76 0.80 0.84 0.88 0.92 0.94 0.94 0.94 0.96 0.96 0.92 0.92 0.92 0.94 0.96 0.98 0.98 1.00 1.00 1.01 1.01 1.00 0.98 0.98 1.00 1.01 1.03 1.05 1.07 1.09 1.09 1.11 1.15 1.19 1.23 1.25 1.29 1.29 1.29 1.29 1.29 1.29 1.29 1.29 1.27 1.27 1.27 1.29 1.31 1.31 1.33 1.33 1.33 1.35 1.35 1.35 1.35 1.35 1.35
0.31 0.37 0.42 0.44 0.48 0.50 0.52 0.56 0.60 0.64 0.66 0.70 0.72 0.76 0.80 0.84 0.88 0.92 0.94 0.94 0.94 0.94 0.96 0.96 0.96 0.96 0.96 0.98 0.98 1.00 1.00 1.01 1.00 0.98 0.98 1.00 1.01 1.05 1.07 1.07 1.09 1.11 1.13 1.17 1.21 1.21 1.23 1.23 1.27 1.27 1.29 1.29 1.29 1.29 1.29 1.29 1.29 1.31 1.31 1.31 1.33 1.33 1.33 1.33 1.35 1.35 1.35 1.33 1.33
0.25 0.27 0.29 0.31 0.37 0.38 0.42 0.44 0.50 0.54 0.58 0.60 0.62 0.64 0.68 0.70 0.74 0.80 0.82 0.78 0.88 0.92 0.94 0.96 0.96 0.96 0.96 0.98 0.98 0.98 1.00 1.00 1.00 1.00 0.98 0.98 1.01 1.03 1.05 1.07 1.09 1.11 1.13 1.15 1.17 1.17 1.17 1.19 1.21 1.25 1.27 1.29 1.31 1.31 1.31 1.31 1.31 1.31 1.31 1.33 1.33 1.33 1.33 1.33 1.33 1.33 1.33 1.33 1.33
0.21 0.23 0.23 0.25 0.27 0.29 0.29 0.31 0.40 0.44 0.46 0.48 0.50 0.52 0.52 0.48 0.52 0.56 0.60 0.64 0.74 0.80 0.86 0.88 0.90 0.92 0.94 0.96 0.96 0.98 0.98 1.00 1.00 1.00 1.00 1.00 1.01 1.01 1.03 1.05 1.07 1.09 1.11 1.13 1.11 1.13 1.15 1.19 1.19 1.23 1.25 1.29 1.31 1.33 1.33 1.33 1.33 1.33 1.33 1.33 1.33 1.35 1.35 1.33 1.33 1.33 1.33 1.33 1.33
0.19 0.19 0.21 0.21 0.23 0.25 0.27 0.27 0.31 0.33 0.33 0.35 0.35 0.37 0.38 0.40 0.42 0.46 0.50 0.54 0.58 0.64 0.70 0.76 0.82 0.86 0.88 0.92 0.92 0.94 0.96 0.96 0.98 1.00 1.01 1.01 1.01 1.01 1.01 1.03 1.03 1.05 1.07 1.09 1.11 1.13 1.15 1.19 1.21 1.23 1.23 1.25 1.29 1.31 1.33 1.33 1.33 1.33 1.31 1.31 1.33 1.35 1.35 1.35 1.35 1.33 1.33 1.33 1.33
0.17 0.17 0.19 0.19 0.19 0.21 0.23 0.25 0.27 0.29 0.29 0.31 0.31 0.33 0.35 0.35 0.37 0.38 0.40 0.44 0.48 0.54 0.60 0.64 0.68 0.74 0.80 0.86 0.88 0.90 0.92 0.94 0.96 0.98 1.00 1.01 1.01 1.01 1.01 1.01 1.01 1.03 1.05 1.07 1.09 1.11 1.15 1.17 1.19 1.21 1.23 1.25 1.27 1.29 1.31 1.31 1.31 1.31 1.29 1.29 1.31 1.33 1.35 1.35 1.35 1.35 1.35 1.33 1.33
0.17 0.17 0.17 0.17 0.19 0.19 0.21 0.21 0.23 0.25 0.27 0.27 0.29 0.29 0.31 0.33 0.33 0.35 0.37 0.38 0.42 0.46 0.50 0.54 0.58 0.62 0.68 0.74 0.80 0.84 0.88 0.92 0.94 0.96 0.96 0.98 1.00 1.01 1.01 1.01 1.01 1.03 1.05 1.07 1.07 1.09 1.13 1.15 1.17 1.19 1.21 1.23 1.25 1.25 1.27 1.29 1.29 1.29 1.27 1.27 1.29 1.31 1.33 1.35 1.35 1.35 1.35 1.35 1.33
0.17 0.17 0.17 0.17 0.17 0.19 0.19 0.19 0.21 0.21 0.23 0.25 0.25 0.27 0.29 0.31 0.31 0.33 0.35 0.35 0.37 0.38 0.42 0.46 0.50 0.52 0.56 0.60 0.66 0.72 0.78 0.84 0.88 0.92 0.94 0.96 0.98 1.00 1.00 1.01 1.03 1.03 1.05 1.05 1.07 1.07 1.09 1.11 1.13 1.15 1.17 1.19 1.21 1.21 1.23 1.25 1.25 1.25 1.27 1.27 1.27 1.29 1.31 1.33 1.33 1.35 1.35 1.33 1.33
0.19 0.17 0.17 0.17 0.17 0.17 0.17 0.19 0.19 0.19 0.21 0.23 0.23 0.25 0.27 0.27 0.29 0.31 0.33 0.33 0.35 0.35 0.37 0.40 0.42 0.44 0.48 0.50 0.56 0.60 0.66 0.74 0.80 0.86 0.90 0.92 0.94 0.96 0.98 1.00 1.01 1.01 1.03 1.05 1.05 1.05 1.07 1.09 1.09 1.11 1.13 1.15 1.15 1.17 1.19 1.19 1.19 1.21 1.23 1.25 1.27 1.29 1.31 1.31 1.33 1.33 1.33 1.31 1.31
0.19 0.19 0.17 0.17 0.17 0.17 0.17 0.17 0.17 0.19 0.19 0.21 0.21 0.23 0.25 0.27 0.27 0.29 0.31 0.31 0.33 0.33 0.33 0.37 0.38 0.40 0.42 0.46 0.50 0.52 0.58 0.62 0.68 0.74 0.80 0.86 0.90 0.92 0.94 0.96 0.96 1.00 1.01 1.01 1.03 1.05 1.05 1.05 1.07 1.09 1.09 1.11 1.11 1.13 1.13 1.13 1.13 1.15 1.17 1.21 1.25 1.27 1.29 1.31 1.31 1.31 1.31 1.31 1.31
0.19 0.19 0.19 0.17 0.17 0.17 0.17 0.17 0.17 0.19 0.19 0.19 0.19 0.21 0.23 0.25 0.25 0.27 0.29 0.31 0.31 0.31 0.31 0.33 0.35 0.37 0.40 0.42 0.44 0.48 0.50 0.54 0.58 0.64 0.70 0.76 0.82 0.86 0.88 0.88 0.92 0.96 0.98 1.00 1.01 1.01 1.03 1.05 1.05 1.05 1.05 1.07 1.07 1.09 1.09 1.07 1.09 1.11 1.13 1.15 1.19 1.23 1.25 1.29 1.29 1.29 1.29 1.29 1.29
0.19 0.19 0.19 0.19 0.17 0.17 0.17 0.17 0.19 0.19 0.19 0.19 0.19 0.19 0.21 0.21 0.23 0.25 0.27 0.29 0.29 0.29 0.31 0.31 0.33 0.35 0.37 0.38 0.40 0.42 0.44 0.48 0.52 0.56 0.60 0.66 0.72 0.76 0.78 0.80 0.86 0.92 0.96 0.98 0.98 1.00 1.01 1.01 1.03 1.03 1.03 1.03 1.05 1.05 1.05 1.03 1.05 1.05 1.07 1.09 1.13 1.15 1.19 1.23 1.25 1.25 1.23 1.27 1.27
0.19 0.19 0.19 0.19 0.17 0.17 0.17 0.17 0.19 0.19 0.19 0.19 0.19 0.19 0.21 0.21 0.23 0.23 0.25 0.25 0.27 0.27 0.29 0.29 0.31 0.33 0.35 0.35 0.37 0.38 0.40 0.42 0.46 0.50 0.54 0.58 0.60 0.62 0.66 0.72 0.76 0.84 0.90 0.92 0.96 0.98 0.98 1.00 1.00 1.01 1.01 1.03 1.03 1.01 1.01 1.01 1.01 1.01 1.01 1.03 1.07 1.09 1.13 1.17 1.19 1.19 1.19 1.21 1.23
Wind_Speed
32 32 32 32 33 33 34 35 35 36 36 37 37 38 39 41 42 43 44 45 46 48 49 49 50 50 51 51 52 53 53 54 54 55 56 56 56 56 57 57 57 58 59 59 59 59 59 59 58 58 57 57 57 57 56 56 56 56 55 55 54 54 53 52 52 52 51 50 49
31 32 32 32 32 33 33 33 34 34 35 35 36 37 38 39 40 41 43 44 45 47 48 49 50 50 51 51 52 52 53 53 54 55 55 56 56 56 56 56 57 58 58 59 59 59 59 59 59 58 58 57 57 57 57 57 56 56 56 56 55 54 54 54 53 53 52 51 49
30 31 31 32 32 32 32 32 33 33 34 35 35 36 37 38 39 40 41 43 44 45 46 48 49 50 51 51 51 51 52 52 53 54 54 55 56 56 56 56 57 57 58 58 59 59 59 59 59 59 58 58 58 57 57 57 57 56 56 56 54 54 54 55 55 54 53 51 50
29 30 31 31 32 32 33 32 33 33 34 34 35 35 36 37 38 39 40 41 43 44 45 47 48 49 50 51 51 51 51 52 52 53 53 54 55 55 56 56 56 57 57 58 58 59 59 59 58 58 59 59 59 57 57 57 57 57 56 56 54 53 54 55 56 55 54 52 51
27 28 29 30 31 32 32 33 33 33 33 33 34 34 35 36 36 37 38 39 40 42 43 45 46 47 49 50 51 51 52 52 52 52 53 53 54 55 55 56 56 56 57 57 58 58 59 59 58 58 58 59 59 58 57 57 57 57 56 55 54 54 54 55 56 56 55 53 52
24 25 26 28 29 30 31 31 32 32 32 33 33 34 34 35 35 36 37 38 39 40 41 43 44 46 48 49 51 51 52 52 52 52 53 53 54 54 54 55 56 56 56 57 57 58 58 59 58 58 58 58 58 58 58 57 57 57 57 56 55 54 55 56 56 56 55 54 53
21 23 24 26 27 28 29 30 31 31 32 32 33 33 34 34 35 35 36 36 37 38 39 41 43 45 46 48 49 50 51 52 52 53 53 53 54 54 54 55 56 56 56 57 57 57 58 58 58 58 58 58 58 58 58 58 58 57 57 56 55 55 56 57 56 56 55 55 55
20 21 23 24 25 27 28 29 29 30 30 31 32 33 34 34 35 35 35 36 36 37 38 39 42 44 45 47 48 49 50 51 52 52 53 53 54 54 55 55 56 56 56 57 57 57 57 58 58 58 58 58 58 58 58 59 58 58 57 57 56 56 56 57 56 56 56 56 56
19 20 22 23 24 25 27 28 28 29 30 30 31 32 33 33 34 35 35 36 36 37 37 38 40 42 44 45 47 48 49 50 52 52 53 53 54 54 55 55 56 56 56 56 57 57 57 57 57 57 57 57 57 57 58 58 58 58 58 57 56 56 56 56 56 56 56 56 56
18 20 21 22 23 24 26 27 27 28 29 30 31 31 32 32 33 33 34 35 36 36 37 38 39 40 42 44 45 46 48 49 51 52 53 54 54 54 55 55 56 56 56 56 56 57 57 57 57 57 57 57 57 57 56 57 57 58 58 57 56 55 55 55 55 55 55 56 56
18 19 20 21 22 23 24 25 26 27 28 29 30 30 30 31 31 32 33 33 34 35 36 37 38 39 40 42 43 45 46 48 49 51 52 53 54 55 55 55 56 56 56 56 56 56 56 56 57 58 58 57 57 56 55 55 56 57 58 57 56 55 54 55 55 55 55 55 56
17 18 19 19 20 21 22 23 24 25 26 27 28 28 28 29 29 30 30 30 31 32 33 34 35 37 38 39 41 42 44 46 48 49 51 52 53 54 55 55 56 56 57 57 56 56 56 56 57 57 58 58 57 56 55 55 55 56 57 58 57 55 55 55 55 55 55 55 55
16 17 18 19 20 20 21 21 22 22 23 24 25 26 26 26 27 27 27 28 29 29 30 31 32 34 35 37 38 40 42 44 46 47 49 51 52 53 54 54 55 56 56 56 56 56 55 56 56 57 57 58 57 57 56 56 55 56 57 58 57 56 56 55 55 55 54 54 54
15 16 17 18 19 20 21 21 21 21 22 22 23 23 23 23 24 24 25 26 27 28 29 29 30 31 32 34 36 38 40 41 43 45 47 48 50 51 52 53 54 55 55 55 55 55 55 55 56 56 56 57 57 57 57 57 57 57 57 57 57 57 56 55 55 55 54 54 54
13 13 14 15 16 18 19 20 21 21 21 22 21 21 21 21 22 23 24 26 27 28 28 28 29 29 30 32 33 35 37 39 41 43 45 47 48 49 50 51 52 53 54 54 54 55 55 55 55 55 55 56 56 57 57 57 57 57 57 57 57 56 55 55 55 54 54 54 54
13 13 13 14 14 14 15 17 18 20 21 21 21 21 22 22 22 24 25 26 26 27 27 27 27 28 28 30 31 33 35 37 39 41 43 45 46 48 49 50 51 52 53 53 54 54 54 55 55 55 55 55 56 56 56 57 57 56 56 56 56 55 55 54 54 54 54 54 54
14 14 14 14 14 14 14 14 15 17 19 20 21 22 23 24 25 26 26 26 25 25 25 25 25 25 26 28 29 31 33 35 37 39 41 43 44 46 47 49 50 51 51 52 53 53 54 54 54 54 55 55 55 55 56 56 56 56 56 56 55 55 54 54 54 54 54 54 54
17 16 15 15 15 14 14 14 14 15 16 17 19 20 22 24 26 27 27 26 25 24 24 23 24 24 25 26 27 29 31 33 35 37 39 41 42 44 46 47 49 49 50 51 52 52 53 53 53 54 54 54 54 55 55 55 55 55 55 55 55 54 54 54 54 54 54 54 54
20 19 19 18 18 17 16 15 15 14 13 13 15 16 18 20 22 23 23 23 23 23 23 23 23 23 24 24 25 26 28 30 32 35 36 38 40 42 44 46 47 48 49 50 51 51 52 52 52 53 53 53 53 54 54 55 55 55 55 55 54 54 54 54 54 54 54 54 54
24 23 22 21 20 19 18 18 16 15 13 12 12 12 13 14 15 16 16 16 17 18 20 21 21 21 21 21 22 23 25 27 30 32 34 35 37 40 42 44 46 47 48 49 49 50 51 51 51 52 52 53 53 53 54 54 54 54 54 54 54 54 54 54 54 54 54 54 54
28 26 25 23 21 20 20 19 18 17 15 14 13 12 11 10 10 10 10 11 11 13 14 16 17 18 18 19 20 22 23 25 27 30 31 33 35 37 40 42 43 45 46 47 48 48 49 50 50 51 52 52 53 53 54 54 54 54 54 54 54 54 54 54 54 54 54 53 53
32 30 28 26 24 22 22 22 21 19 18 16 15 14 13 12 10 8 7 6 6 7 8 9 10 11 12 14 17 20 22 23 26 28 29 31 32 34 37 38 40 42 43 44 45 46 47 48 49 51 51 52 52 53 53 53 53 54 54 54 54 54 54 54 53 53 53 52 52
33 32 31 29 27 26 26 25 24 23 21 19 17 16 15 14 13 11 8 6 4 3 3 4 5 6 7 8 9 12 14 17 21 25 27 29 30 32 33 35 37 38 40 41 42 43 45 46 47 49 50 51 51 51 52 52 52 53 53 53 53 53 53 52 52 52 51 51 51
33 33 32 31 30 29 28 28 27 26 24 22 20 17 16 16 15 14 11 8 6 4 2 2 2 4 5 5 5 6 7 10 14 19 24 27 29 31 32 33 34 36 37 39 40 42 43 43 45 46 47 49 49 50 50 51 51 51 51 51 51 51 51 51 51 50 50 50 50
33 33 33 32 31 31 30 29 28 27 26 25 22 20 18 17 16 15 13 10 7 5 4 3 2 2 4 5 5 5 6 8 11 14 18 22 26 29 31 32 32 34 35 37 39 41 42 42 42 43 45 46 47 48 49 50 50 50 50 50 50 49 49 49 49 49 49 48 48
34 34 33 33 33 32 31 30 29 28 28 27 25 23 21 19 17 16 14 11 8 6 5 4 4 3 3 4 4 5 6 7 9 11 13 15 18 22 26 28 29 30 32 34 36 38 40 40 41 41 42 43 45 46 48 48 49 49 49 49 48 48 47 47 47 47 47 46 46
34 34 34 34 34 33 33 32 31 30 30 29 28 26 24 21 19 17 15 13 10 8 7 6 5 5 4 3 3 4 4 6 7 9 10 11 11 13 16 20 23 25 26 29 32 35 37 38 39 39 40 40 42 43 44 45 46 47 47 47 47 46 45 45 44 44 45 45 45
34 34 34 34 34 34 34 33 33 32 32 31 30 28 27 24 22 19 17 15 13 11 10 9 9 8 7 6 5 4 4 4 5 6 7 9 9 10 11 13 15 17 19 22 25 29 32 35 36 36 37 37 38 39 40 41 41 42 43 43 43 43 43 43 43 43 43 44 44
34 34 34 34 34 33 33 33 33 33 33 32 31 30 29 27 25 22 19 17 16 14 13 12 12 12 11 9 8 7 6 4 4 5 6 7 8 10 12 14 15 16 17 18 20 23 27 31 33 34 34 35 35 36 36 36 37 38 39 39 40 41 41 42 42 42 42 43 43
34 34 34 33 33 33 33 33 33 32 32 31 31 31 30 29 28 26 23 20 18 16 14 14 14 13 12 11 10 9 9 7 6 5 5 6 7 10 12 14 16 17 17 17 18 20 22 26 29 31 32 33 33 33 33 34 35 36 37 38 39 41 41 42 41 41 41 42 42
34 34 34 34 33 33 33 32 32 32 31 31 30 30 30 29 28 27 25 23 21 18 16 15 15 14 13 12 11 10 10 10 8 7 6 6 7 9 11 13 14 15 16 16 17 17 19 21 24 27 30 31 32 32 33 34 35 36 37 38 40 41 41 41 41 41 41 42 42
35 34 34 34 34 33 33 32 32 31 31 30 30 29 29 29 28 27 26 24 23 22 20 18 17 15 14 13 13 12 11 11 10 10 9 8 8 9 10 11 13 14 14 14 15 15 16 18 20 23 27 30 32 33 33 34 35 36 37 39 39 40 40 41 41 41 41 42 42
35 35 35 34 34 33 33 32 32 31 30 30 30 29 29 28 27 27 26 25 24 23 22 21 20 18 16 14 14 13 13 12 11 10 10 11 11 11 11 11 11 12 12 12 13 14 15 17 20 22 24 27 31 33 34 35 36 36 37 38 39 39 40 40 40 40 40 40 41
36 35 35 35 34 34 33 33 32 31 31 30 30 29 29 28 28 27 26 25 24 24 23 22 21 20 18 17 15 14 13 13 12 11 11 11 12 12 12 11 11 11 11 11 12 13 15 17 19 21 23 25 28 30 32 34 36 37 37 38 38 38 39 39 39 39 39 39 39
36 36 36 35 35 35 34 34 33 32 31 31 30 29 29 28 28 27 26 25 24 24 23 22 22 21 20 19 17 16 15 14 13 13 12 11 11 12 13 13 12 12 11 11 12 14 16 17 18 19 21 23 25 26 28 30 33 35 37 38 38 37 37 37 37 37 38 38 38
37 37 37 36 36 35 35 34 34 33 32 32 31 30 29 29 28 27 27 26 25 24 24 23 22 22 21 20 19 18 16 15 14 14 13 13 12 12 13 13 14 14 13 14 15 16 18 18 18 18 19 21 23 24 25 26 28 31 34 36 37 37 37 36 36 37 37 38 38
37 37 37 37 36 36 35 35 34 34 33 33 32 31 30 29 28 28 27 27 26 25 24 24 23 23 22 21 20 19 17 16 15 14 14 14 14 13 13 14 14 15 16 16 17 18 18 19 19 19 20 21 22 22 23 24 26 28 30 33 35 36 37 37 37 37 37 38 38
37 37 37 37 37 36 36 36 35 35 34 33 33 32 31 30 29 29 28 27 27 26 25 24 24 23 22 22 21 20 18 17 16 15 14 14 14 15 15 14 15 15 16 17 18 18 19 20 20 20 21 22 22 23 24 25 26 27 28 30 32 34 36 36 37 37 37 38 38
37 38 38 38 37 37 37 37 36 35 35 34 33 32 32 31 30 29 29 28 27 27 26 25 25 24 23 22 21 20 20 18 17 16 15 14 15 15 15 15 15 16 16 17 17 18 19 20 21 21 22 23 23 24 24 25 26 27 28 29 30 32 33 34 35 36 36 37 38
37 37 38 38 38 38 38 37 37 36 35 35 34 33 32 31 31 30 29 29 28 27 27 26 25 25 24 23 22 21 20 20 18 17 16 15 15 15 15 15 16 16 16 16 17 18 18 20 21 22 22 23 24 25 25 26 26 27 27 28 29 30 31 32 33 34 34 36 37
37 37 38 38 38 38 38 38 38 37 37 36 35 34 33 32 31 30 30 29 29 28 28 27 27 26 25 24 23 22 21 21 20 19 18 17 16 16 16 16 16 16 16 17 17 17 17 18 19 21 22 23 24 25 25 26 26 26 27 27 28 29 31 32 32 33 33 34 35
Wind_Direction
251 253 254 255 256 257 258 258 258 259 258 258 257 256 255 254 253 252 251 250 249 248 248 247 246 246 245 244 243 242 241 239 238 237 237 236 236 235 234 233 233 233 233 233 233 233 233 233 233 233 233 233 233 232 232 232 231 231 231 231 231 231 231 231 232 232 233 233 234
251 253 255 256 257 258 259 259 260 260 260 259 259 258 257 256 255 253 252 251 251 250 249 248 247 246 245 244 243 242 241 240 239 238 236 236 235 234 233 233 232 232 232 232 233 233 233 232 232 232 232 232 232 232 232 231 231 231 231 231 231 231 231 231 232 232 232 234 235
253 254 256 257 258 259 260 260 261 261 260 260 260 259 258 257 256 255 254 253 252 251 251 250 248 247 246 244 243 242 241 240 239 238 237 236 235 234 233 232 232 232 232 232 232 232 232 232 232 231 231 232 232 232 232 231 231 231 231 231 231 232 232 232 232 232 233 234 235
255 256 257 258 259 260 261 262 262 262 261 261 260 260 259 258 257 256 255 254 253 253 252 251 250 248 246 245 243 242 241 240 239 238 237 235 235 234 233 232 232 232 231 231 232 232 232 232 231 231 231 231 231 231 231 231 231 231 231 231 231 232 232 233 233 233 234 235 235
257 257 259 260 261 261 262 263 263 263 262 262 261 260 260 259 258 257 256 255 254 254 253 252 250 248 246 245 243 242 241 240 239 238 237 235 234 234 233 233 232 232 232 231 231 231 231 231 231 231 231 231 231 231 231 231 231 231 231 231 231 232 232 233 233 233 234 235 235
260 260 261 262 263 263 264 264 263 263 263 263 262 262 261 260 259 258 257 256 255 254 253 252 250 248 247 245 243 242 241 240 239 238 237 236 235 234 233 233 232 232 232 231 231 231 231 231 231 231 231 231 231 231 231 231 231 231 231 231 231 231 231 232 232 233 234 235 235
264 264 264 265 265 265 265 264 264 263 263 263 263 262 262 261 260 258 257 255 255 254 253 252 250 248 247 245 243 242 240 239 238 238 237 236 235 234 233 233 233 232 232 232 231 231 231 230 231 231 231 231 231 231 231 231 231 230 230 230 230 230 230 231 232 233 234 235 235
268 268 267 267 267 266 266 265 265 264 264 263 263 263 263 262 260 259 257 255 254 253 253 252 250 249 247 245 243 241 240 239 238 238 237 236 236 235 234 233 233 232 232 232 231 231 231 230 230 230 230 230 230 231 231 230 230 230 230 230 230 231 231 231 232 233 234 235 235
272 271 270 270 269 268 268 267 266 266 265 264 264 263 263 262 261 259 257 255 253 253 253 253 252 250 247 245 243 241 240 239 238 237 237 236 236 235 234 233 233 232 232 231 231 231 230 230 230 230 230 230 230 230 230 230 230 230 230 230 231 231 231 231 232 233 234 235 235
276 275 274 273 272 271 270 269 268 267 266 265 264 264 263 262 261 259 257 256 254 254 254 255 254 251 248 246 244 242 240 239 238 237 237 236 236 235 234 234 233 232 231 231 230 230 230 230 230 230 230 230 230 230 230 230 230 230 230 230 231 231 231 231 232 233 234 235 236
281 279 277 275 274 273 271 270 269 268 266 266 265 264 264 263 261 260 258 257 257 256 256 256 254 252 249 247 245 243 241 240 239 237 237 236 236 235 235 234 233 232 231 230 230 230 230 229 230 230 229 229 229 229 229 229 229 230 230 230 230 231 231 231 231 232 234 235 235
285 282 279 277 274 273 271 270 269 268 267 266 265 265 264 263 262 260 259 259 259 259 258 256 254 252 250 248 246 243 242 240 239 238 237 237 236 236 235 234 233 232 231 230 230 229 229 229 229 229 229 229 229 229 229 229 229 229 229 230 230 231 231 231 231 232 234 234 235
289 286 283 280 277 275 273 271 271 270 268 267 266 265 264 263 262 261 260 260 260 260 259 258 255 253 250 248 246 244 242 241 240 239 238 237 236 235 235 234 233 232 231 230 229 229 229 229 229 229 229 229 229 229 229 229 229 229 229 230 230 231 231 231 232 232 233 234 234
302 296 291 286 282 279 276 274 273 271 270 268 267 266 265 264 263 262 261 260 260 260 260 259 256 254 251 249 246 244 242 241 240 239 238 237 236 235 234 233 232 231 230 229 229 228 228 228 228 228 228 229 229 229 230 230 230 229 229 230 230 231 231 232 232 232 233 233 234
329 321 313 305 297 289 283 279 276 274 272 270 269 268 268 267 267 265 264 262 261 260 260 259 257 255 253 250 248 245 243 242 240 239 238 236 235 234 234 233 232 231 230 229 228 228 228 228 228 228 229 229 230 230 230 230 230 230 230 230 230 231 231 232 232 232 232 233 233
344 339 333 326 318 309 300 291 284 279 276 274 272 271 271 271 270 269 268 265 264 263 261 260 259 257 255 252 249 246 244 242 240 238 237 235 234 233 232 232 231 230 229 229 228 228 228 228 228 229 229 230 230 230 230 230 229 229 230 230 231 231 231 232 232 232 233 233 233
351 347 343 339 333 327 319 309 300 291 285 280 277 274 273 271 271 270 269 268 267 265 263 261 260 259 257 254 250 247 244 241 239 237 236 234 233 232 231 231 230 229 229 228 228 228 228 228 229 229 229 230 230 231 231 230 229 229 229 230 231 231 232 232 232 233 233 233 234
355 352 349 347 344 340 335 328 319 308 298 290 284 279 275 273 272 271 269 268 267 265 263 262 261 259 257 254 250 247 243 241 238 236 235 233 232 231 230 229 229 229 228 228 228 228 228 229 229 229 230 230 231 231 231 230 229 229 229 230 231 232 232 232 233 233 234 234 235
355 352 350 348 347 346 344 342 337 330 319 307 296 289 284 279 276 274 272 270 267 264 262 262 261 259 256 253 250 246 243 241 238 236 234 233 232 230 229 229 228 228 228 228 228 228 228 229 229 230 230 231 232 232 232 231 230 229 229 230 231 232 232 233 233 234 235 235 236
358 354 350 347 345 345 346 346 344 342 339 332 324 315 305 295 287 283 280 277 273 269 266 263 261 258 256 253 250 247 244 242 240 238 237 235 233 231 229 228 228 227 227 227 227 228 228 229 230 230 231 232 232 232 232 231 230 229 230 231 232 232 233 234 234 234 235 236 236
6 2 358 354 352 352 352 350 348 346 346 348 351 350 344 331 316 302 293 288 284 279 273 268 264 260 257 254 252 249 247 246 244 242 240 238 235 232 229 228 227 227 227 227 227 228 229 230 231 232 232 233 233 232 232 230 230 230 230 231 232 233 233 234 234 235 235 235 236
15 11 8 7 7 7 6 3 359 355 353 353 354 356 357 355 350 342 328 310 297 289 282 276 271 267 263 259 256 253 251 248 246 244 241 237 233 230 228 227 227 227 228 228 229 230 231 232 232 233 233 233 233 232 231 230 230 230 231 232 232 233 233 234 234 234 235 235 236
18 16 14 13 14 16 16 14 11 8 4 0 354 349 348 349 350 349 349 347 342 323 300 285 281 280 277 271 263 257 251 246 244 242 240 236 232 230 229 229 230 231 231 232 232 233 233 233 233 233 233 233 232 231 231 231 231 231 232 232 232 233 233 234 234 234 235 235 235
18 18 17 16 15 16 16 16 16 14 10 5 358 350 346 345 346 346 347 352 1 6 355 319 290 285 283 279 275 264 251 243 242 243 243 241 237 235 234 234 234 234 234 234 234 234 234 234 233 233 232 232 232 231 231 231 232 232 232 232 233 233 233 233 233 234 234 235 235
16 16 16 16 16 16 15 15 15 14 12 8 4 359 353 350 351 351 351 351 357 5 13 15 355 311 289 284 278 267 255 249 248 251 252 249 244 240 237 236 236 236 235 234 234 233 233 232 232 231 231 231 231 231 231 232 232 232 232 232 232 232 232 232 232 232 233 233 233
15 15 14 14 14 15 15 14 14 14 13 13 11 8 3 357 355 355 356 354 349 350 357 5 2 346 319 299 289 278 267 260 258 258 259 256 251 243 238 236 236 236 235 234 233 232 231 230 230 230 230 230 230 230 230 231 231 231 231 231 231 231 230 230 230 230 230 230 230
14 13 13 12 12 12 12 12 12 12 12 13 13 12 9 3 358 356 357 356 350 344 343 345 340 335 331 323 314 302 289 278 269 264 261 258 253 246 239 234 233 235 237 238 236 233 230 229 229 229 230 230 230 229 229 229 228 228 228 228 228 227 227 227 226 227 227 228 228
13 12 12 11 11 11 10 10 10 10 10 10 11 12 11 9 3 358 354 353 352 348 341 331 321 317 316 314 314 314 310 299 284 271 263 257 249 241 235 230 228 231 237 242 241 236 232 229 230 230 231 230 230 229 228 227 226 226 225 225 224 224 225 225 226 226 227 227 227
11 11 10 10 10 9 9 9 8 8 8 8 8 9 10 11 10 6 0 355 352 349 342 331 321 314 309 306 302 301 302 302 292 276 262 252 243 236 233 232 233 236 241 244 243 239 235 232 231 230 230 230 229 228 227 226 225 224 224 224 224 225 225 226 227 227 227 226 226
10 10 9 9 9 8 8 7 7 7 6 6 6 6 7 9 10 11 9 6 1 355 348 342 337 330 323 314 305 298 294 291 287 279 266 253 246 240 237 236 237 239 242 245 244 242 239 236 233 230 229 228 228 227 226 225 224 224 224 224 225 225 226 226 225 225 225 225 225
10 9 9 8 8 7 7 6 6 5 5 5 4 4 5 5 6 7 8 8 6 2 356 352 349 345 340 332 322 312 303 295 287 278 266 257 252 247 243 240 241 242 244 246 246 244 242 239 236 233 230 228 226 226 225 224 224 224 224 225 225 225 224 224 223 224 224 224 225
9 8 8 7 7 6 6 5 4 4 3 3 3 3 2 3 2 2 2 2 2 1 358 355 351 348 343 337 331 326 320 310 297 283 271 261 256 252 249 245 244 246 247 247 246 244 242 239 237 235 232 229 227 225 225 224 224 225 225 225 224 223 223 223 224 225 225 225 226
8 7 7 6 5 5 4 3 3 2 2 1 1 0 360 360 359 359 358 358 357 357 356 355 354 351 346 341 335 330 326 320 311 297 281 269 262 258 253 249 245 246 248 248 246 244 241 238 235 233 231 229 228 227 226 226 226 226 225 225 225 225 224 225 225 226 226 226 226
6 6 5 5 4 3 2 1 1 0 360 359 358 358 357 357 356 356 355 354 353 353 352 352 352 351 349 346 341 335 329 323 319 311 299 282 270 263 258 253 247 246 248 248 248 247 245 240 235 231 229 227 227 227 228 227 227 226 226 226 226 226 226 226 226 227 227 227 227
4 4 3 3 2 1 0 360 359 358 357 357 356 355 354 353 353 353 352 351 350 349 348 348 347 347 347 346 344 340 335 328 322 318 312 302 286 272 263 258 252 251 251 251 254 255 254 250 243 236 231 228 227 227 228 228 227 226 226 225 225 225 225 225 226 226 226 226 226
2 2 1 1 1 360 359 358 357 356 355 354 353 352 351 350 350 349 348 347 346 346 345 344 343 343 343 342 342 341 338 333 327 322 318 313 303 289 274 264 258 255 255 256 258 260 261 259 254 248 240 235 232 231 231 231 229 228 226 225 225 224 224 224 225 226 226 225 225
360 359 359 359 358 358 358 357 355 354 353 352 351 349 348 347 346 345 344 343 343 343 342 341 340 339 338 338 337 337 336 334 329 324 319 316 311 301 289 276 266 261 259 259 259 259 261 261 260 256 250 243 240 238 236 235 234 232 230 227 226 225 225 225 225 225 225 224 224
359 358 358 357 356 356 356 355 354 353 352 350 349 347 346 344 343 342 341 340 340 339 338 337 337 335 334 333 332 332 332 331 329 325 320 315 310 304 296 287 279 272 267 265 263 260 259 259 260 259 255 250 246 243 241 239 237 236 234 231 229 227 226 226 226 225 225 225 225
358 357 357 356 355 354 354 354 353 352 351 349 348 346 344 342 341 339 338 336 336 335 335 334 333 332 330 329 327 327 327 326 325 322 318 313 308 304 299 293 287 281 277 274 271 267 263 260 258 258 256 252 250 247 244 241 240 238 236 235 232 230 229 228 227 226 226 226 227
357 356 356 355 354 354 353 352 352 351 350 349 347 345 343 341 339 337 335 333 332 331 330 330 330 328 327 325 324 323 322 321 320 318 315 311 307 304 300 296 291 287 283 281 278 274 269 264 260 257 255 251 249 247 245 243 242 240 239 237 235 234 232 231 230 229 229 229 230
356 355 355 354 353 353 352 351 350 350 349 348 347 345 343 341 338 336 334 332 330 328 327 326 326 325 324 322 321 319 318 317 316 314 311 308 304 302 299 297 293 290 286 284 282 279 275 270 264 259 255 251 249 247 245 244 242 242 241 240 238 237 235 234 233 232 232 232 232